Tracking 29892 objects as of 21-Nov-2024
HD Live streaming from Space Station
objects crossing your sky now

SL-8 DEB

Track SL-8 DEB now!
10-day predictions


NORAD ID: 56998
Int'l Code: 1971-086L
Perigee: 1,508.1 km
Apogee: 1,624.3 km
Inclination: 74.0 °
Period: 117.3 minutes
Semi major axis: 7937 km
RCS: Unknown
Launch date: October 13, 1971
Source: Commonwealth of Independent States (former USSR) (CIS)
Launch site: PLESETSK MISSILE AND SPACE COMPLEX (PKMTR)

Note: This is SATELLITE DEBRIS
Your satellite tracking list
Your tracking list is empty




NASA's NSSDC Master Catalog

Two Line Element Set (TLE):
1 56998U 71086L   24314.88613391  .00000028  00000-0  36905-3 0  9998
2 56998  74.0177  26.5465 0073226  68.7440 292.1399 12.27724287486401
Source of the keplerian elements: AFSPC